Weather History for Bullhead City, AZ

Change the Weather History Date:

Saturday, October 27, 2012

  Actual Average Record
Temperature  
Mean Temperature 70 °F -  
Max Temperature 78 °F 77 °F 95 °F (2008)
Min Temperature 62 °F 58 °F 44 °F (1989)
Cooling Degree Days 5    
Growing Degree Days 20 (Base 50)    
Moisture  
Dew Point 19 °F    
Average Humidity 15    
Maximum Humidity 22    
Minimum Humidity 10    
Precipitation  
Precipitation 0.00 in - - ()
Sea Level Pressure  
Sea Level Pressure 29.97 in    
Wind  
Wind Speed 22 mph (North)    
Max Wind Speed 31 mph    
Max Gust Speed 40 mph    
Visibility 10 miles    
Events Rain    
Averages and records for this station are not official NWS values.
T = Trace of Precipitation, MM = Missing Value Source: NWS Daily Summary

Daily Weather History Graph

Daily Weather History Graph

Search for Another Location

Airport:

Trip Planner

Search our weather history database for the weather conditions in past years. The results will help you decide how hot, cold, wet, or windy it might be!

Date:

Astronomy

Oct. 27, 2012 Rise Set
Actual Time 6:55 AM MST 5:48 PM MST
Civil Twilight 6:29 AM MST 6:14 PM MST
Nautical Twilight 5:59 AM MST 6:44 PM MST
Astronomical Twilight 5:30 AM MST 7:13 PM MST
Moon 4:34 PM MST (10/27) 4:57 AM MST (10/27)
Length of Visible Light 11h 44m
Length of Day
10h 52m
Waxing Gibbous, 96% of the Moon is Illuminated
Oct 27
Waxing Gibbous
Oct 29
Full
Nov 6
Last Quarter
Nov 13
New
Nov 20
First Quarter

Hourly Weather History & Observations

Time (MST) Temp. Dew Point Humidity Pressure Visibility Wind Dir Wind Speed Gust Speed Precip Events Conditions
12:15 AM 66.2 °F 15.8 °F 14% 30.02 in 10.0 mi NNE 24.2 mph 28.8 mph N/A   Clear
12:35 AM 66.2 °F 15.8 °F 14% 30.01 in 10.0 mi North 26.5 mph 32.2 mph N/A Rain Light Rain
12:55 AM 66.2 °F 15.8 °F 14% 30.01 in 10.0 mi NNE 25.3 mph - N/A Rain Light Rain
1:15 AM 66.2 °F 15.8 °F 14% 30.00 in 10.0 mi NNE 24.2 mph 29.9 mph N/A Rain Light Rain
1:35 AM 64.4 °F 15.8 °F 15% 30.00 in 10.0 mi NNE 23.0 mph - N/A Rain Light Rain
1:55 AM 64.4 °F 15.8 °F 15% 30.00 in 10.0 mi NNE 21.9 mph 28.8 mph N/A   Clear
2:15 AM 64.4 °F 17.6 °F 16% 29.99 in 10.0 mi NNE 21.9 mph - N/A   Clear
2:35 AM 64.4 °F 19.4 °F 18% 29.99 in 10.0 mi NNE 23.0 mph 28.8 mph N/A   Clear
2:55 AM 64.4 °F 19.4 °F 18% 29.99 in 10.0 mi NNE 20.7 mph 28.8 mph N/A   Clear
3:15 AM 64.4 °F 19.4 °F 18% 30.00 in 10.0 mi NNE 21.9 mph 28.8 mph N/A   Clear
3:35 AM 64.4 °F 21.2 °F 19% 30.00 in 10.0 mi NNE 19.6 mph 27.6 mph N/A   Clear
4:15 AM 64.4 °F 23.0 °F 21% 30.01 in 10.0 mi NE 18.4 mph 25.3 mph N/A   Clear
4:35 AM 64.4 °F 21.2 °F 19% 30.01 in 10.0 mi NNE 23.0 mph - N/A   Clear
4:55 AM 64.4 °F 21.2 °F 19% 30.01 in 10.0 mi NNE 24.2 mph 29.9 mph N/A   Clear
5:15 AM 62.6 °F 21.2 °F 20% 30.01 in 10.0 mi North 20.7 mph 27.6 mph N/A   Clear
5:55 AM 62.6 °F 23.0 °F 22% 30.02 in 10.0 mi NNE 18.4 mph - N/A   Clear
6:15 AM 62.6 °F 21.2 °F 20% 30.02 in 10.0 mi North 20.7 mph 27.6 mph N/A   Clear
6:35 AM 62.6 °F 23.0 °F 22% 30.01 in 10.0 mi NNE 20.7 mph 31.1 mph N/A   Clear
6:55 AM 62.6 °F 21.2 °F 20% 30.01 in 10.0 mi NNE 20.7 mph 26.5 mph N/A   Clear
7:15 AM 62.6 °F 23.0 °F 22% 30.02 in 10.0 mi NNE 19.6 mph 25.3 mph N/A   Clear
7:35 AM 62.6 °F 23.0 °F 22% 30.02 in 10.0 mi NNE 20.7 mph 24.2 mph N/A   Clear
7:55 AM 62.6 °F 23.0 °F 22% 30.02 in 10.0 mi North 27.6 mph 31.1 mph N/A Rain Light Rain
8:15 AM 62.6 °F 23.0 °F 22% 30.03 in 10.0 mi North 25.3 mph 29.9 mph N/A Rain Light Rain
8:35 AM 64.4 °F 23.0 °F 21% 30.03 in 10.0 mi NNE 26.5 mph 32.2 mph N/A Rain Light Rain
8:55 AM 64.4 °F 24.8 °F 22% 30.04 in 10.0 mi NNE 24.2 mph - N/A Rain Light Rain
9:15 AM 64.4 °F 24.8 °F 22% 30.04 in 10.0 mi North 20.7 mph - N/A   Clear
9:35 AM 66.2 °F 21.2 °F 18% 30.04 in 10.0 mi North 19.6 mph 32.2 mph N/A   Clear
10:15 AM 68.0 °F 17.6 °F 15% 30.04 in 10.0 mi North 23.0 mph 27.6 mph N/A   Clear
10:35 AM 69.8 °F 17.6 °F 14% 30.04 in 10.0 mi North 21.9 mph 31.1 mph N/A   Clear
10:55 AM 71.6 °F 17.6 °F 13% 30.03 in 10.0 mi North 25.3 mph 33.4 mph N/A   Clear
11:15 AM 71.6 °F 15.8 °F 12% 30.02 in 10.0 mi North 28.8 mph 40.3 mph N/A Rain Light Rain
11:35 AM 71.6 °F 15.8 °F 12% 30.00 in 10.0 mi North 31.1 mph 36.8 mph N/A Rain Light Rain
11:55 AM 73.4 °F 17.6 °F 12% 30.00 in 10.0 mi North 26.5 mph 35.7 mph N/A Rain Light Rain
12:15 PM 73.4 °F 15.8 °F 11% 29.99 in 10.0 mi North 21.9 mph 35.7 mph N/A Rain Light Rain
12:35 PM 75.2 °F 15.8 °F 11% 29.97 in 10.0 mi North 28.8 mph 33.4 mph N/A Rain Light Rain
12:55 PM 75.2 °F 17.6 °F 11% 29.96 in 10.0 mi North 26.5 mph 34.5 mph N/A Rain Light Rain
1:15 PM 75.2 °F 17.6 °F 11% 29.95 in 10.0 mi North 27.6 mph 34.5 mph N/A   Clear
1:35 PM 77.0 °F 17.6 °F 11% 29.94 in 10.0 mi North 25.3 mph 33.4 mph N/A   Clear
1:55 PM 77.0 °F 17.6 °F 11% 29.94 in 10.0 mi North 23.0 mph 33.4 mph N/A   Clear
2:15 PM 77.0 °F 23.0 °F 13% 29.93 in 10.0 mi North 20.7 mph 33.4 mph N/A   Clear
2:35 PM 77.0 °F 19.4 °F 12% 29.92 in 10.0 mi North 25.3 mph 31.1 mph N/A   Clear
2:55 PM 77.0 °F 19.4 °F 12% 29.92 in 10.0 mi North 25.3 mph 33.4 mph N/A   Clear
3:15 PM 78.8 °F 17.6 °F 10% 29.91 in 10.0 mi North 26.5 mph 32.2 mph N/A   Clear
3:35 PM 78.8 °F 17.6 °F 10% 29.91 in 10.0 mi North 27.6 mph 32.2 mph N/A   Clear
3:55 PM 78.8 °F 17.6 °F 10% 29.91 in 10.0 mi North 24.2 mph 34.5 mph N/A   Clear
4:15 PM 78.8 °F 19.4 °F 11% 29.91 in 10.0 mi North 21.9 mph 33.4 mph N/A   Clear
4:35 PM 78.8 °F 19.4 °F 11% 29.91 in 10.0 mi North 25.3 mph 31.1 mph N/A   Clear
4:55 PM 78.8 °F 19.4 °F 11% 29.91 in 10.0 mi North 21.9 mph 28.8 mph N/A   Clear
5:15 PM 77.0 °F 19.4 °F 12% 29.91 in 10.0 mi North 20.7 mph 24.2 mph N/A   Clear
5:35 PM 77.0 °F 19.4 °F 12% 29.92 in 10.0 mi North 15.0 mph 23.0 mph N/A   Clear
5:55 PM 77.0 °F 19.4 °F 12% 29.91 in 10.0 mi North 15.0 mph 20.7 mph N/A   Clear
6:15 PM 77.0 °F 19.4 °F 12% 29.92 in 10.0 mi North 16.1 mph 19.6 mph N/A   Clear
6:35 PM 75.2 °F 21.2 °F 13% 29.92 in 10.0 mi NNE 12.7 mph 18.4 mph N/A   Clear
6:55 PM 75.2 °F 23.0 °F 14% 29.92 in 10.0 mi North 16.1 mph - N/A   Clear
7:15 PM 75.2 °F 23.0 °F 14% 29.93 in 10.0 mi NNE 16.1 mph - N/A   Clear
7:55 PM 75.2 °F 21.2 °F 13% 29.93 in 10.0 mi NNE 17.3 mph - N/A   Clear
8:15 PM 73.4 °F 19.4 °F 13% 29.93 in 10.0 mi NNE 16.1 mph - N/A   Clear
8:35 PM 75.2 °F 19.4 °F 12% 29.93 in 10.0 mi NNE 20.7 mph 24.2 mph N/A   Clear
8:55 PM 75.2 °F 17.6 °F 11% 29.93 in 10.0 mi NNE 20.7 mph - N/A   Clear
9:15 PM 73.4 °F 19.4 °F 13% 29.95 in 10.0 mi NNE 18.4 mph 25.3 mph N/A   Clear
9:35 PM 73.4 °F 17.6 °F 12% 29.95 in 10.0 mi NNE 18.4 mph 23.0 mph N/A   Clear
9:55 PM 73.4 °F 19.4 °F 13% 29.96 in 10.0 mi NNE 13.8 mph - N/A   Clear
10:15 PM 73.4 °F 17.6 °F 12% 29.96 in 10.0 mi NNE 13.8 mph - N/A   Clear
10:35 PM 73.4 °F 19.4 °F 13% 29.97 in 10.0 mi NNE 12.7 mph - N/A   Clear
10:55 PM 71.6 °F 19.4 °F 14% 29.97 in 10.0 mi NNE 9.2 mph - N/A   Clear
11:15 PM 71.6 °F 19.4 °F 14% 29.97 in 10.0 mi NNE 6.9 mph - N/A   Clear
11:55 PM 69.8 °F 19.4 °F 15% 29.97 in 10.0 mi North 12.7 mph - N/A   Clear